When you browse on this site, cookies collect data to enhance your experience and personalize the content and advertising you see.
Visit our Privacy Policy to learn more. By continuing to use the site, you agree to this use of cookies and data.
  • In Austria
  • List of Countries
  • For 7 days
  • Water Temperature
  • Weather Map
  • News
  • Weather Widgets
  • user-avatar
    Login

    Hourly Weather Phnom Penh

    Today, 22 January, Wednesday

    Time Temperature Precipitation Wind Pressure Humidity
    00:00 +27°C° 0 mm 2 mps 760 mmHg 63%
    01:00 +26°C° 0 mm 2 mps 760 mmHg 68%
    02:00 +26°C° 0 mm 2 mps 759 mmHg 71%
    03:00 +25°C° 0 mm 2 mps 759 mmHg 74%
    04:00 +25°C° 0 mm 2 mps 759 mmHg 77%
    05:00 +25°C° 0 mm 2 mps 759 mmHg 77%
    06:00 +25°C° 0 mm 1 mps 759 mmHg 78%
    07:00 +25°C° 0 mm 1 mps 760 mmHg 77%
    08:00 +27°C° 0 mm 1 mps 760 mmHg 70%
    09:00 +29°C° 0 mm 1 mps 760 mmHg 62%
    10:00 +31°C° 0 mm 2 mps 761 mmHg 54%
    11:00 +32°C° 0 mm 1 mps 760 mmHg 49%
    12:00 +34°C° 0 mm 1 mps 759 mmHg 44%
    13:00 +35°C° 0 mm 1 mps 757 mmHg 38%
    14:00 +36°C° 0 mm 1 mps 757 mmHg 36%
    15:00 +36°C° 0 mm 1 mps 756 mmHg 34%
    16:00 +37°C° 0 mm 2 mps 756 mmHg 32%
    17:00 +36°C° 0 mm 2 mps 756 mmHg 35%
    18:00 +34°C° 0 mm 2 mps 756 mmHg 38%
    19:00 +32°C° 0 mm 2 mps 757 mmHg 41%
    20:00 +31°C° 0 mm 2 mps 757 mmHg 47%
    21:00 +30°C° 0 mm 3 mps 758 mmHg 53%
    22:00 +29°C° 0 mm 4 mps 759 mmHg 58%
    23:00 +28°C° 0 mm 4 mps 758 mmHg 65%

    Tomorrow, 23 January, Thursday

    Time Temperature Precipitation Wind Pressure Humidity
    00:00 +27°C° 0 mm 4 mps 758 mmHg 72%
    01:00 +26°C° 0 mm 3 mps 758 mmHg 79%
    02:00 +26°C° 0 mm 3 mps 757 mmHg 81%
    03:00 +25°C° 0 mm 3 mps 757 mmHg 84%
    04:00 +25°C° 0 mm 3 mps 757 mmHg 86%
    05:00 +25°C° 0 mm 3 mps 758 mmHg 86%
    06:00 +25°C° 0 mm 3 mps 758 mmHg 87%
    07:00 +25°C° 0 mm 3 mps 758 mmHg 87%
    08:00 +27°C° 0 mm 3 mps 759 mmHg 77%
    09:00 +29°C° 0 mm 3 mps 759 mmHg 68%
    10:00 +31°C° 0 mm 3 mps 759 mmHg 58%
    11:00 +32°C° 0 mm 2 mps 758 mmHg 53%
    12:00 +34°C° 0 mm 2 mps 757 mmHg 47%
    13:00 +35°C° 0 mm 1 mps 757 mmHg 41%
    14:00 +35°C° 0 mm 1 mps 756 mmHg 38%
    15:00 +37°C° 0 mm 2 mps 755 mmHg 35%
    16:00 +37°C° 0 mm 2 mps 755 mmHg 32%
    17:00 +34°C° 0 mm 1 mps 755 mmHg 35%
    18:00 +33°C° 0 mm 1 mps 755 mmHg 38%
    19:00 +29°C° 0 mm 0 mps 756 mmHg 41%
    20:00 +30°C° 0 mm 1 mps 756 mmHg 46%
    21:00 +29°C° 0 mm 2 mps 757 mmHg 50%
    22:00 +28°C° 0 mm 3 mps 757 mmHg 54%
    23:00 +28°C° 0 mm 3 mps 757 mmHg 60%

    Day after tomorrow, 24 January, Friday

    Time Temperature Precipitation Wind Pressure Humidity
    00:00 +27°C° 0 mm 3 mps 757 mmHg 66%
    01:00 +26°C° 0 mm 3 mps 757 mmHg 72%
    02:00 +25°C° 0 mm 3 mps 757 mmHg 74%
    03:00 +25°C° 0 mm 3 mps 757 mmHg 77%
    04:00 +24°C° 0 mm 3 mps 757 mmHg 79%
    05:00 +24°C° 0 mm 3 mps 757 mmHg 80%
    06:00 +24°C° 0 mm 3 mps 758 mmHg 80%
    07:00 +24°C° 0 mm 3 mps 759 mmHg 81%
    08:00 +27°C° 0 mm 3 mps 759 mmHg 72%
    09:00 +29°C° 0 mm 3 mps 759 mmHg 63%
    10:00 +31°C° 0 mm 3 mps 759 mmHg 54%
    11:00 +32°C° 0 mm 2 mps 758 mmHg 49%
    12:00 +35°C° 0 mm 2 mps 757 mmHg 43%
    13:00 +36°C° 0 mm 2 mps 757 mmHg 37%
    14:00 +37°C° 0 mm 2 mps 756 mmHg 34%
    15:00 +37°C° 0 mm 2 mps 755 mmHg 32%
    16:00 +36°C° 0 mm 1 mps 754 mmHg 29%
    17:00 +35°C° 0 mm 1 mps 754 mmHg 32%
    18:00 +33°C° 0 mm 1 mps 755 mmHg 35%
    19:00 +31°C° 0 mm 1 mps 755 mmHg 39%
    20:00 +30°C° 0 mm 2 mps 756 mmHg 42%
    21:00 +29°C° 0 mm 3 mps 756 mmHg 46%
    22:00 +28°C° 0 mm 4 mps 757 mmHg 49%
    23:00 +27°C° 0 mm 4 mps 757 mmHg 58%

    25 January, Saturday

    Time Temperature Precipitation Wind Pressure Humidity
    00:00 +27°C° 0 mm 4 mps 757 mmHg 67%
    01:00 +26°C° 0 mm 4 mps 756 mmHg 76%
    02:00 +25°C° 0 mm 4 mps 756 mmHg 78%
    03:00 +25°C° 0 mm 4 mps 756 mmHg 81%
    04:00 +25°C° 0 mm 3 mps 756 mmHg 84%
    05:00 +25°C° 0 mm 3 mps 757 mmHg 85%
    06:00 +25°C° 0 mm 3 mps 757 mmHg 85%
    07:00 +25°C° 0 mm 3 mps 758 mmHg 86%
    08:00 +27°C° 0 mm 3 mps 758 mmHg 77%
    09:00 +29°C° 0 mm 4 mps 758 mmHg 68%
    10:00 +32°C° 0 mm 4 mps 759 mmHg 59%
    11:00 +33°C° 0 mm 4 mps 758 mmHg 55%
    12:00 +34°C° 0 mm 4 mps 757 mmHg 50%
    13:00 +35°C° 0 mm 4 mps 756 mmHg 46%
    14:00 +35°C° 0 mm 4 mps 755 mmHg 46%
    15:00 +35°C° 0 mm 4 mps 755 mmHg 45%
    16:00 +35°C° 0 mm 4 mps 754 mmHg 45%
    17:00 +33°C° 0 mm 4 mps 754 mmHg 50%
    18:00 +31°C° 0 mm 3 mps 755 mmHg 56%
    19:00 +29°C° 0 mm 3 mps 755 mmHg 61%
    20:00 +29°C° 0 mm 3 mps 756 mmHg 64%
    21:00 +28°C° 0 mm 3 mps 756 mmHg 66%
    22:00 +28°C° 0 mm 3 mps 757 mmHg 68%
    23:00 +27°C° 0 mm 3 mps 757 mmHg 72%

    26 January, Sunday

    Time Temperature Precipitation Wind Pressure Humidity
    00:00 +27°C° 0 mm 3 mps 756 mmHg 75%
    01:00 +26°C° 0 mm 3 mps 756 mmHg 79%
    02:00 +26°C° 0 mm 3 mps 756 mmHg 82%
    03:00 +25°C° 0 mm 2 mps 756 mmHg 86%
    04:00 +25°C° 0 mm 2 mps 756 mmHg 89%
    05:00 +25°C° 0 mm 2 mps 756 mmHg 89%
    06:00 +25°C° 0 mm 2 mps 756 mmHg 90%
    07:00 +25°C° 0 mm 2 mps 757 mmHg 90%
    08:00 +27°C° 0 mm 2 mps 757 mmHg 80%
    09:00 +29°C° 0 mm 3 mps 757 mmHg 70%
    10:00 +31°C° 0 mm 3 mps 757 mmHg 60%
    11:00 +34°C° 0 mm 3 mps 757 mmHg 54%
    12:00 +35°C° 0 mm 2 mps 756 mmHg 47%
    13:00 +36°C° 0 mm 2 mps 755 mmHg 41%
    14:00 +37°C° 0 mm 2 mps 754 mmHg 39%
    15:00 +37°C° 0 mm 2 mps 754 mmHg 37%
    16:00 +37°C° 0 mm 2 mps 753 mmHg 34%
    17:00 +36°C° 0 mm 2 mps 754 mmHg 41%
    18:00 +34°C° 0 mm 3 mps 754 mmHg 47%
    19:00 +31°C° 0 mm 3 mps 755 mmHg 53%
    20:00 +30°C° 0 mm 3 mps 755 mmHg 59%
    21:00 +29°C° 0 mm 3 mps 756 mmHg 65%
    22:00 +28°C° 0 mm 3 mps 756 mmHg 71%
    23:00 +27°C° 0 mm 3 mps 756 mmHg 74%

    27 January, Monday

    Time Temperature Precipitation Wind Pressure Humidity
    00:00 +27°C° 0 mm 3 mps 756 mmHg 77%
    01:00 +26°C° 0 mm 3 mps 756 mmHg 80%
    02:00 +26°C° 0 mm 2 mps 755 mmHg 83%
    03:00 +25°C° 0 mm 2 mps 755 mmHg 85%
    04:00 +25°C° 0 mm 2 mps 755 mmHg 88%
    05:00 +25°C° 0 mm 2 mps 756 mmHg 89%
    06:00 +25°C° 0 mm 2 mps 756 mmHg 90%
    07:00 +25°C° 0 mm 2 mps 756 mmHg 90%
    08:00 +27°C° 0 mm 3 mps 757 mmHg 80%
    09:00 +29°C° 0 mm 3 mps 757 mmHg 70%
    10:00 +31°C° 0 mm 3 mps 757 mmHg 60%
    11:00 +34°C° 0 mm 3 mps 756 mmHg 54%
    12:00 +35°C° 0 mm 3 mps 756 mmHg 47%
    13:00 +37°C° 0 mm 4 mps 755 mmHg 41%
    14:00 +37°C° 0 mm 4 mps 754 mmHg 39%
    15:00 +37°C° 0 mm 4 mps 754 mmHg 37%
    16:00 +37°C° 0 mm 4 mps 753 mmHg 35%
    17:00 +35°C° 0 mm 4 mps 753 mmHg 42%
    18:00 +33°C° 0 mm 4 mps 754 mmHg 48%
    19:00 +30°C° 0 mm 4 mps 754 mmHg 54%
    20:00 +30°C° 0 mm 4 mps 755 mmHg 58%
    21:00 +29°C° 0 mm 4 mps 755 mmHg 62%
    22:00 +28°C° 0 mm 4 mps 756 mmHg 66%
    23:00 +28°C° 0 mm 4 mps 756 mmHg 70%
    Show more